www.pogodaiklimat.ru

Погода и климат >> Архив погоды >> Австралия >> Charleville Aero


ПОГОДА в Charleville Aero

  • Прогноз погоды в Charleville Aero
  • Монитор погоды в Charleville Aero
  • Климат города

АРХИВ ПОГОДЫ в Charleville Aero

Время (UTC), дата Ветер
(напр.,м/с)
 
Видим.   Явления Облачность Т
(С)
Тd
(С)
f
(%)
Тe
(С)
Тes
(С)
Комфортность P
(гПа)
Po
(гПа)
Тmin
(С)
Tmax
(С)
R
(мм)
R24
(мм)
S
(см)
17 19.06 Ю 1 н/о н/о +7.5 +3.4 75 +7 +7 1023.3 987.2
18 19.06 Ю 3 н/о н/о +6.8 +3.8 81 +4 +4 1022.9 986.8
20 19.06 Ю 1 н/о н/о +5.5 +2.8 83 +4 +4 1023.7 987.5
21 19.06 штиль 0 н/о н/о +11.4 +2.6 55 +11 +11 1024.1 987.9
23 19.06 С 2 н/о н/о +14.4 +6.3 58 +14 +14 1024.8 988.6
00 20.06 СВ 1 н/о н/о +18.5 +7.3 48 +20 +20 1024.9 988.7
02 20.06 СВ 3 н/о н/о +21.9 +6.2 36 +23 +23 комфорт 1023.4 987.3 +5.1
03 20.06 СВ 3 н/о н/о +23.3 +5.2 31 +23 +23 комфорт 1022.4 986.3
05 20.06 В 4 н/о н/о +24.3 +4.6 28 +24 +24 комфорт 1021.1 985.0
06 20.06 Ю 3 н/о н/о +23.8 +4.2 28 +23 +23 комфорт 1021.3 985.2
08 20.06 ЮВ 3 н/о н/о +19.3 +3.9 36 +20 +20 1022.4 986.3
09 20.06 Ю 4 н/о н/о +18.2 +4.7 41 +18 +18 1022.8 986.7
11 20.06 ЮВ 3 н/о н/о +14.8 +4.5 50 +14 +14 1023.7 987.5
12 20.06 Ю 2 н/о н/о +12.6 +4.1 56 +12 +12 1023.9 987.7
14 20.06 Ю 3 н/о н/о +9.3 +3.5 67 +7 +7 1023.6 987.4 +24.8
15 20.06 ЮВ 3 н/о н/о +10.1 +4.0 66 +8 +8 1023.2 987.1
17 20.06 штиль 0 н/о н/о +7.0 +2.9 75 +6 +6 1023.1 987.0
18 20.06 штиль 0 н/о н/о +6.0 +2.5 78 +5 +5 1022.9 986.8
20 20.06 штиль 0 н/о н/о +4.6 +1.8 82 +4 +4 1023.2 987.1
21 20.06 штиль 0 н/о н/о +11.4 +1.5 51 +11 +11 1023.7 987.5
23 20.06 штиль 0 н/о н/о +15.1 +5.0 51 +15 +15 1025.3 989.1
00 21.06 СВ 3 н/о н/о +19.3 +4.6 38 +20 +20 1025.6 989.4
02 21.06 З 2 н/о н/о +21.5 +1.7 27 +21 +21 комфорт 1024.5 988.3 +4.1
03 21.06 ЮВ 2 н/о н/о +22.5 +1.5 25 +22 +22 комфорт 1023.3 987.2
05 21.06 Ю 5 н/о н/о +23.1 +0.2 22 +22 +22 комфорт 1021.8 985.7
06 21.06 Ю 5 н/о н/о +22.7 -0.1 22 +22 +22 комфорт 1022.0 985.9
08 21.06 ЮВ 3 н/о н/о +17.6 -0.2 30 +18 +18 1022.6 986.5
09 21.06 штиль 0 н/о н/о +14.1 0.0 38 +14 +14 1023.6 987.4
11 21.06 ЮВ 3 н/о н/о +13.2 +1.8 46 +12 +12 1024.3 988.1
12 21.06 ЮВ 3 н/о н/о +12.2 +1.5 48 +11 +11 1024.3 988.1
14 21.06 ЮВ 3 н/о н/о +9.1 +1.5 59 +7 +7 1024.2 988.0 +23.8
15 21.06 Ю 3 н/о н/о +7.6 +1.0 63 +5 +5 1024.2 988.0
17 21.06 штиль 0 н/о н/о +5.6 +0.6 70 +5 +5 1023.4 987.3
18 21.06 штиль 0 н/о н/о +4.6 -0.2 71 +4 +4 1023.2 987.1
20 21.06 штиль 0 н/о н/о +3.4 -0.8 74 +3 +3 1024.1 987.9
21 21.06 штиль 0 н/о н/о +2.9 -0.7 77 +2 +2 1025.0 988.8
23 21.06 С 2 н/о н/о +13.1 +2.1 47 +13 +13 1026.0 989.8
00 22.06 С 3 н/о н/о +17.7 +1.7 34 +18 +18 1026.3 990.1
02 22.06 С 2 н/о н/о +20.8 +1.6 28 +22 +22 комфорт 1024.6 988.4 +2.9
03 22.06 ЮВ 2 н/о н/о +21.7 +0.8 25 +21 +21 комфорт 1023.6 987.4
05 22.06 С 2 н/о н/о +23.0 +0.8 23 +22 +22 комфорт 1022.2 986.1
06 22.06 С 3 н/о н/о +22.6 +0.4 23 +22 +22 комфорт 1022.0 985.9
08 22.06 штиль 0 н/о н/о +17.0 -0.7 30 +17 +17 1022.4 986.3
09 22.06 штиль 0 н/о н/о +13.4 +0.1 40 +13 +13 1022.7 986.6
11 22.06 ЮВ 2 н/о н/о +10.2 -0.3 48 +9 +9 1023.1 987.0
12 22.06 штиль 0 н/о н/о +9.2 -0.4 51 +9 +9 1022.9 986.8
14 22.06 штиль 0 н/о н/о +6.9 -0.8 58 +6 +6 1022.6 986.5 +23.7
15 22.06 штиль 0 н/о н/о +6.7 -1.0 58 +6 +6 1022.2 986.1
17 22.06 СВ 1 н/о н/о +6.3 -0.7 61 +7 +7 1022.0 985.9
18 22.06 штиль 0 н/о н/о +5.5 -1.2 62 +5 +5 1021.7 985.6
20 22.06 С 2 н/о н/о +6.6 -0.8 59 +5 +5 1021.4 985.3
21 22.06 С 2 н/о н/о +6.1 -1.1 60 +4 +4 1022.0 985.9
23 22.06 С 3 н/о н/о +12.5 +0.6 44 +11 +11 1023.7 987.5
00 23.06 С 2 н/о н/о +17.5 +1.9 35 +18 +18 1023.9 987.7
02 23.06 СЗ 4 н/о н/о +22.2 +0.1 23 +22 +22 комфорт 1021.8 985.7 +5.6
03 23.06 З 2 н/о н/о +22.8 +0.6 23 +22 +22 комфорт 1020.5 984.5
05 23.06 СЗ 3 н/о н/о +24.2 -0.9 19 +23 +23 комфорт 1018.8 982.8
06 23.06 З 3 н/о н/о +23.8 -1.2 19 +22 +22 комфорт 1018.9 982.9
08 23.06 штиль 0 н/о н/о +17.7 -1.0 28 +18 +18 1019.1 983.1
09 23.06 штиль 0 н/о н/о +14.1 -1.1 35 +14 +14 1019.6 983.6
11 23.06 штиль 0 н/о н/о +10.7 -1.0 44 +11 +11 1020.1 984.1
12 23.06 штиль 0 н/о н/о +10.4 -0.4 47 +10 +10 1020.1 984.1
14 23.06 С 2 н/о н/о +8.5 -0.5 53 +7 +7 1019.6 983.6 +24.5
15 23.06 штиль 0 н/о н/о +7.5 -0.9 55 +7 +7 1019.4 983.4
17 23.06 штиль 0 н/о н/о +6.3 -1.1 59 +6 +6 1018.9 982.9
18 23.06 СВ 1 н/о н/о +5.8 -1.3 60 +6 +6 1018.8 982.8
20 23.06 С 2 н/о н/о +7.2 -0.7 57 +5 +5 1019.0 983.0
21 23.06 С 2 н/о н/о +6.6 -0.6 60 +5 +5 1019.7 983.7
23 23.06 С 3 н/о н/о +12.8 +0.9 44 +12 +12 1020.8 984.7
00 24.06 СЗ 2 н/о н/о +17.4 +1.4 34 +18 +18 1021.1 985.0
02 24.06 СВ 2 н/о н/о +22.9 +0.7 23 +22 +22 комфорт 1019.2 983.2 +5.8
03 24.06 С 3 н/о н/о +23.6 0.0 21 +22 +22 комфорт 1017.7 981.8
05 24.06 З 4 н/о н/о +24.4 -0.7 19 +23 +23 комфорт 1016.9 981.0
06 24.06 Ю 3 н/о н/о +24.6 +0.2 20 +23 +23 комфорт 1016.8 980.9
08 24.06 Ю 2 н/о н/о +18.7 -0.7 27 +19 +19 1017.6 981.7
09 24.06 Ю 2 н/о н/о +15.4 -0.8 33 +15 +15 1018.1 982.1
11 24.06 ЮВ 2 н/о н/о +11.4 -0.4 44 +11 +11 1018.8 982.8
12 24.06 ЮВ 1 н/о н/о +10.4 -0.4 47 +11 +11 1019.4 983.4
14 24.06 ЮВ 2 н/о н/о +9.2 -0.4 51 +8 +8 1018.8 982.8 +25.0
15 24.06 штиль 0 н/о н/о +8.0 -0.7 54 +8 +8 1018.6 982.6
17 24.06 штиль 0 н/о н/о +6.8 -0.9 58 +6 +6 1018.2 982.2
18 24.06 штиль 0 н/о н/о +6.4 -0.8 60 +6 +6 1018.0 982.0
20 24.06 штиль 0 н/о н/о +5.2 -1.3 63 +5 +5 1018.3 982.3
21 24.06 штиль 0 н/о н/о +5.0 -1.0 65 +4 +4 1018.6 982.6
23 24.06 С 3 н/о н/о +14.5 +0.4 38 +14 +14 1020.0 984.0
00 25.06 С 2 н/о н/о +18.1 +1.2 32 +19 +19 1020.4 984.4
02 25.06 З 3 н/о н/о +23.8 +0.8 22 +23 +23 комфорт 1019.1 983.1 +4.8
03 25.06 З 4 н/о н/о +24.7 -0.4 19 +23 +23 комфорт 1018.0 982.0
05 25.06 З 5 н/о н/о +25.7 -1.2 17 +24 +24 комфорт 1017.3 981.4
06 25.06 ЮЗ 5 н/о н/о +25.6 -0.5 18 +24 +24 комфорт 1017.4 981.5
08 25.06 Ю 2 н/о н/о +19.2 -1.3 25 +20 +20 1018.2 982.2
09 25.06 Ю 2 н/о н/о +16.1 -1.0 31 +16 +16 1018.5 982.5
11 25.06 штиль 0 н/о н/о +12.4 -0.8 40 +12 +12 1019.7 983.7
12 25.06 штиль 0 н/о н/о +11.0 -0.8 44 +11 +11 1019.9 983.9
14 25.06 штиль 0 н/о н/о +8.8 -1.3 49 +9 +9 1019.5 983.5 +26.4
15 25.06 штиль 0 н/о н/о +8.0 -1.2 52 +8 +8 1019.8 983.8
17 25.06 штиль 0 н/о н/о +6.8 -1.6 55 +6 +6 1019.3 983.3
18 25.06 штиль 0 н/о н/о +6.3 -1.6 57 +6 +6 1019.5 983.5
20 25.06 штиль 0 н/о н/о +6.4 -1.0 59 +6 +6 1019.5 983.5
21 25.06 штиль 0 н/о н/о +5.9 -1.0 61 +5 +5 1020.5 984.5
23 25.06 С 2 н/о н/о +14.1 -0.7 36 +14 +14 1022.1 986.0
00 26.06 С 3 н/о н/о +18.0 +0.2 30 +18 +18 1022.3 986.2
02 26.06 СЗ 2 н/о н/о +24.2 -0.2 20 +23 +23 комфорт 1021.5 985.4 +5.9
03 26.06 З 2 н/о н/о +25.1 -0.9 18 +23 +23 комфорт 1020.2 984.2
05 26.06 ЮЗ 2 н/о н/о +25.9 -0.2 18 +24 +24 комфорт 1019.2 983.2
06 26.06 ЮЗ 4 н/о н/о +25.9 -0.2 18 +24 +24 комфорт 1019.4 983.4
08 26.06 Ю 3 н/о н/о +20.3 +0.2 26 +21 +21 комфорт 1020.3 984.3
09 26.06 Ю 3 н/о н/о +19.2 +1.2 30 +20 +20 1020.6 984.6
11 26.06 ЮВ 3 н/о н/о +18.0 +0.6 31 +18 +18 1021.4 985.3
12 26.06 ЮВ 4 н/о н/о +17.6 +0.7 32 +17 +17 1021.7 985.6
14 26.06 ЮВ 3 н/о н/о +15.2 +0.6 37 +15 +15 1021.6 985.5 +26.9
15 26.06 Ю 3 н/о н/о +14.4 +1.0 40 +14 +14 1021.8 985.7

 

Местоположение метеостанции Charleville Aero (Квинсленд, Австралия): широта -26.41 долгота 146.26 высота над уровнем моря 303 м.

В архиве по умолчанию представлена погода в Charleville Aero за последнюю неделю. Архивные данные за месяц целиком и за предыдущие месяцы, начиная с января 2011 года, Вы можете получить, выбрав интересующий диапазон дат из раскрывающегося списка и нажав кнопку "Ввод!".

Внимание! Время в таблицах - всемирное. Для получения местного времени необходимо прибавить поправку, которая в Charleville Aero равна 10 ч.

Смотрите также архив погоды в соседних городах и на ближайших метеорологических станциях:

Погода в Blackall Airport (Квинсленд, Австралия) (237 км)
Погода в Roma Airport (Квинсленд, Австралия) (251 км)
Погода в St George Airport (Квинсленд, Австралия) (295 км)
Погода в Thargomindah Airport (Квинсленд, Австралия) (299 км)
Погода в Lochington (Квинсленд, Австралия) (304 км)
Погода в Rolleston Airport (Квинсленд, Австралия) (321 км)
Погода в Emerald Airport (Квинсленд, Австралия) (371 км)
Погода в Longreach Airport (Квинсленд, Австралия) (387 км)
Погода в Miles Constance Street (Квинсленд, Австралия) (391 км)
Погода в Bourke Airport Aws (Новый Южный Уэльс, Австралия) (404 км)

Пояснения к столбцам:

Ветер - указаны скорость ветра в м/с - средняя за 10 мин, порывы в срок и между сроками (в фигурных скобках) и направление, откуда дует ветер: С - северный, СВ - северо-восточный, В - восточный, ЮВ - юго-восточный, Ю - южный, ЮЗ - юго-западный, З - западный, СЗ - северо-западный.
Видимость - горизонтальная дальность видимости в метрах или километрах. При видимости от 1 до 10 км при отсутствии осадков обычно наблюдается дымка, при ухудшении видимости до 1 км и менее - туман. В сухую погоду видимость может ухудшаться дымом, пылью или мглою.
Явления - указаны атмосферные явления, наблюдавшиеся в срок или в последний час перед сроком; фигурными скобками обозначены явления, наблюдавшиеся между сроками (за 1-3 часа до срока); квадратными скобками обозначены град или гололедные отложения с указанием их диаметра в мм.
Облачность - указаны через наклонную черту общая и нижняя облачность в баллах и высота нижней границы облаков в метрах; квадратными скобками обозначены формы облаков: Ci - перистые, Cs - перисто-слоистые, Cc - перисто-кучевые, Ac - высококучевые, As - высокослоистые, Sc - слоисто-кучевые, Ns - слоисто-дождевые, Cu - кучевые, Cb - кучево-дождевые. Подробнее классификацию облаков см. в Атласе облаков (PDF).
T - Температура воздуха - температура, измеренная на высоте 2 м над землей.
Td - Температура точки росы - температура, при понижении до которой содержащийся в воздухе водяной пар достигнет насыщения.
f - Относительная влажность воздуха - влажноcть воздуха, измеренная на высоте 2 м над землей.
Te - Эффективная температура - температура, которую ощущает одетый по сезону человек в тени. Характеристика душности погоды. При расчете учитывается влияние влажности воздуха и скорости ветра на теплоощущения человека.
Tes - Эффективная температура на солнце - температура, которую ощущает человек, с поправкой на солнечный нагрев. Характеристика знойности погоды. Зависит от высоты солнца над горизонтом, облачности и скорости ветра. Ночью, в пасмурную погоду, а также при ветре 12 м/с и более поправка равна нулю.
P - Атмосферное давление - приведенное к уровню моря атмосферное давление.
Po - Атмосферное давление - измеренное на уровне метеостанции атмосферное давление.
Tmin - Минимальная температура - минимум температуры воздуха на высоте 2 м над землей.
Tmax - Максимальная температура - максимум температуры воздуха на высоте 2 м над землей.
R - Количество осадков - Количество выпавших осадков за период времени, мм. При наведении курсора мыши на число - период времени, за который выпало указанное количество осадков.
R24 - Количество осадков - Количество выпавших осадков за 24 часа, мм.
S - Снежный покров - Высота снежного покрова, см. При наведении курсора мыши на число - состояние снежного покрова и степень покрытия местности в баллах.